Location: Clandonald
(53.5720°N, 110.7141°W)
Time: 06:25:49
(UTC+00:00)

Envisat - Pass Details

Date: 30 October 2019
Orbit: 764 x 766 km, 98.1° (Epoch: 11 November)

Event Time Altitude Azimuth Distance (km) Brightness Sun altitude
Rises 02:59:12 0° 220° (SW) 3,225 6.6 -27.5°
Reaches altitude 10° 03:02:45 10° 246° (WSW) 2,305 6.1 -28.0°
Maximum altitude 03:05:15 14° 276° (W) 2,065 6.1 -28.4°
Drops below altitude 10° 03:07:45 10° 306° (NW) 2,313 6.3 -28.8°
Sets 03:11:21 0° 332° (NNW) 3,246 6.9 -29.3°
